DW9945 Weather Reports


time (UTC)temp
C
wind
direction
speed
KPH
gust
KPH
rain 1hr
cm
rain 24hr
cm
rain mn
cm
humidity
%
barometer
mb
20260508120506 12 328 9.7 14.5 0.00 0.79 0.13 84 1012.6
20260508120007 12 333 9.7 12.9 0.03 0.79 0.13 81 1012.6
20260508115506 12 324 8.0 9.7 0.05 0.79 0.13 80 1012.5
20260508115006 12 318 8.0 12.9 0.05 0.79 0.13 83 1012.6
20260508114507 11 332 6.4 12.9 0.05 0.79 0.13 81 1012.7
20260508114006 11 327 8.0 12.9 0.10 0.79 0.13 82 1012.8
20260508113006 11 342 6.4 9.7 0.13 0.79 0.13 85 1012.6
20260508112507 11 330 8.0 11.3 0.13 0.79 0.13 87 1012.7
20260508111006 11 310 8.0 12.9 0.13 0.79 0.13 86 1013.2
20260508110507 11 301 8.0 12.9 0.13 0.79 0.13 88 1013.2
20260508110007 11 283 9.7 14.5 0.10 0.76 0.10 86 1013.2
20260508105506 11 281 9.7 19.3 0.08 0.74 0.08 86 1013.3
20260508105006 11 282 8.0 14.5 0.05 0.71 0.05 85 1013.1
20260508104506 11 308 11.3 14.5 0.05 0.71 0.05 83 1013.1
20260508104006 12 268 8.0 14.5 0.03 0.69 0.03 81 1013.2
20260508103506 12 237 6.4 11.3 0.00 0.66 0.00 78 1013.1
20260508103011 12 239 4.8 8.0 0.00 0.66 0.00 78 1013.1
20260508102507 12 206 6.4 9.7 0.00 0.66 0.00 76 1013.0
20260508102008 13 182 4.8 9.7 0.00 0.66 0.00 74 1012.9
20260508101508 13 192 3.2 8.0 0.00 0.66 0.00 74 1012.9
20260508101008 12 152 4.8 8.0 0.00 0.66 0.00 74 1012.9
20260508100509 12 215 6.4 9.7 0.00 0.66 0.00 75 1012.9
20260508100008 12 148 8.0 12.9 0.00 0.66 0.00 75 1012.8
20260508095508 12 130 4.8 11.3 0.00 0.66 0.00 75 1012.8
20260508095008 12 93 4.8 8.0 0.00 0.66 0.00 76 1012.8
20260508094508 12 109 4.8 11.3 0.00 0.66 0.00 75 1012.7
20260508094008 12 138 4.8 8.0 0.00 0.66 0.00 75 1012.7
20260508093508 12 89 1.6 8.0 0.00 0.66 0.00 76 1012.7
20260508093008 12 133 3.2 4.8 0.00 0.66 0.00 75 1012.9
20260508092508 12 109 0.0 0.0 0.00 0.66 0.00 76 1012.9
20260508092008 12 109 0.0 4.8 0.00 0.66 0.00 76 1012.8
20260508091508 12 148 1.6 4.8 0.00 0.66 0.00 78 1012.7
20260508090509 11 110 3.2 9.7 0.00 0.66 0.00 78 1012.8
20260508090008 11 115 6.4 12.9 0.00 0.66 0.00 77 1013.0
20260508085508 11 125 6.4 12.9 0.00 0.66 0.00 78 1012.9
20260508085008 11 100 4.8 12.9 0.00 0.66 0.00 78 1012.7
20260508084508 11 84 8.0 11.3 0.00 0.66 0.00 78 1012.7
20260508084008 11 101 8.0 12.9 0.00 0.66 0.00 78 1012.6
20260508083509 11 66 8.0 12.9 0.00 0.66 0.00 78 1012.5
20260508083008 11 85 9.7 14.5 0.00 0.66 0.00 77 1012.5
20260508082008 11 74 4.8 11.3 0.00 0.66 0.00 79 1012.6
20260508081008 11 82 8.0 11.3 0.00 0.66 0.00 81 1012.6
20260508080008 10 68 4.8 8.0 0.00 0.66 0.00 82 1012.7
20260508075508 10 66 4.8 9.7 0.00 0.66 0.00 82 1012.8
20260508075008 10 70 3.2 11.3 0.00 0.66 0.00 82 1012.8
20260508074008 10 45 1.6 4.8 0.00 0.66 0.00 85 1012.8
20260508073508 10 54 3.2 8.0 0.00 0.66 0.00 85 1012.7
20260508073008 9 72 4.8 9.7 0.00 0.66 0.00 85 1012.7
20260508072507 9 47 0.0 4.8 0.00 0.66 0.00 86 1012.7
20260508072007 9 44 1.6 4.8 0.00 0.66 0.00 86 1012.6
20260508071508 9 18 3.2 4.8 0.00 0.66 0.00 86 1012.5
20260508071008 9 50 1.6 9.7 0.00 0.66 0.00 86 1012.2
20260508070508 9 40 3.2 9.7 0.00 0.66 0.00 86 1012.2
20260508070008 9 52 4.8 8.0 0.00 0.66 0.00 85 1012.5
20260508065008 8 54 3.2 9.7 0.00 0.66 0.00 85 1012.4
20260508064008 8 56 3.2 8.0 0.00 0.66 0.00 86 1012.3
20260508063508 8 55 0.0 3.2 0.00 0.66 0.00 86 1012.4
20260508063008 8 45 0.0 4.8 0.00 0.66 0.00 86 1012.4
20260508062507 8 11 3.2 8.0 0.00 0.66 0.00 85 1012.3
20260508062007 8 46 6.4 14.5 0.00 0.66 0.00 85 1012.2
20260508061509 8 52 6.4 12.9 0.00 0.66 0.00 86 1012.3
20260508061008 8 53 6.4 12.9 0.00 0.66 0.00 87 1012.2
20260508060508 8 34 4.8 8.0 0.00 0.66 0.00 87 1012.2
20260508060007 8 17 4.8 8.0 0.00 0.66 0.00 87 1012.3
20260508055507 8 24 8.0 12.9 0.00 0.66 0.00 87 1012.2
20260508055007 8 25 6.4 11.3 0.00 0.66 0.00 87 1012.5
20260508054008 8 25 8.0 12.9 0.00 0.66 0.00 87 1012.4
20260508053508 8 9 6.4 11.3 0.00 0.66 0.00 88 1012.4
20260508053008 8 23 6.4 11.3 0.00 0.66 0.00 88 1012.3
20260508052508 8 24 8.0 12.9 0.00 0.66 0.00 88 1012.3
20260508052008 8 24 8.0 14.5 0.00 0.66 0.00 88 1012.2
20260508051508 8 26 8.0 11.3 0.00 0.66 0.00 88 1012.3
20260508051008 8 21 8.0 12.9 0.00 0.66 0.00 89 1012.3
20260508050508 7 22 4.8 11.3 0.00 0.66 0.00 89 1012.3
20260508050008 7 8 4.8 8.0 0.00 0.66 0.00 90 1012.4
20260508045508 7 17 4.8 11.3 0.00 0.66 0.00 90 1012.4
20260508044508 7 12 4.8 8.0 0.00 0.66 0.00 90 1012.2
20260508044007 7 2 3.2 4.8 0.00 0.66 0.00 90 1012.2
20260508043508 7 355 0.0 4.8 0.00 0.66 0.00 89 1012.2
20260508043008 7 358 4.8 8.0 0.00 0.66 0.00 89 1012.1
20260508042508 7 5 3.2 4.8 0.00 0.66 0.00 89 1012.1
20260508042008 7 22 4.8 8.0 0.00 0.66 0.00 89 1012.1
20260508041508 7 20 4.8 11.3 0.00 0.66 0.00 89 1012.1
20260508041007 7 13 4.8 8.0 0.00 0.66 0.00 89 1012.0
20260508040507 7 19 4.8 8.0 0.00 0.66 0.00 89 1011.9
20260508040008 7 20 4.8 9.7 0.00 0.66 0.00 89 1011.9
20260508035507 7 16 0.0 4.8 0.00 0.66 0.00 90 1011.8
20260508035007 7 14 0.0 4.8 0.00 0.66 0.00 90 1011.8
20260508034507 7 14 4.8 4.8 0.00 0.66 0.00 89 1011.9
20260508033507 7 2 4.8 8.0 0.00 0.66 0.00 89 1011.9
20260508033007 7 16 6.4 9.7 0.00 0.66 0.00 88 1011.9
20260508032507 7 358 4.8 4.8 0.00 0.66 0.00 88 1011.9
20260508032008 8 0 3.2 11.3 0.00 0.66 0.00 88 1011.9
20260508031008 8 22 8.0 12.9 0.00 0.66 0.00 88 1011.7
20260508030507 8 25 8.0 14.5 0.00 0.66 0.00 88 1011.7
20260508030008 8 15 8.0 12.9 0.00 0.66 0.00 88 1011.7
20260508025507 7 25 8.0 14.5 0.00 0.66 0.00 88 1011.7
20260508025008 8 13 8.0 14.5 0.00 0.66 0.00 88 1011.7
20260508024508 8 15 9.7 14.5 0.00 0.66 0.00 88 1011.7
20260508024007 8 21 9.7 16.1 0.00 0.66 0.00 88 1011.7
20260508023508 8 25 8.0 14.5 0.00 0.66 0.00 88 1011.8
20260508023008 8 25 11.3 16.1 0.00 0.66 0.00 88 1011.8
20260508022507 7 32 9.7 14.5 0.00 0.66 0.00 89 1011.9
20260508022008 7 26 8.0 14.5 0.00 0.66 0.00 89 1011.9
20260508021507 7 22 4.8 12.9 0.00 0.66 0.00 89 1012.0
20260508021008 7 19 6.4 12.9 0.00 0.66 0.00 89 1012.0
20260508020508 7 23 6.4 11.3 0.00 0.66 0.00 89 1012.1
20260508020008 7 24 6.4 12.9 0.00 0.66 0.00 89 1012.2
20260508015508 7 31 8.0 12.9 0.00 0.66 0.00 90 1012.2
20260508015007 7 25 4.8 8.0 0.00 0.66 0.00 90 1012.3
20260508014507 7 15 4.8 8.0 0.00 0.66 0.00 90 1012.3
20260508014008 7 6 4.8 8.0 0.00 0.66 0.00 89 1012.4
20260508013508 7 2 4.8 8.0 0.00 0.66 0.00 89 1012.4
20260508013009 7 5 3.2 4.8 0.00 0.66 0.00 89 1012.5
20260508012508 7 22 4.8 8.0 0.00 0.66 0.00 90 1012.4
20260508012007 7 28 4.8 8.0 0.00 0.66 0.00 90 1012.5
20260508011507 7 13 4.8 8.0 0.00 0.66 0.00 90 1012.7
20260508011008 7 20 4.8 4.8 0.00 0.66 0.00 90 1012.8
20260508005519 7 26 3.2 4.8 0.00 0.66 0.00 90 1012.9
20260508005019 7 26 3.2 8.0 0.00 0.66 0.00 90 1012.9
20260508004519 7 17 4.8 8.0 0.00 0.66 0.00 90 1013.0
20260508004018 7 17 3.2 8.0 0.00 0.66 0.00 90 1013.0
20260508003518 7 23 3.2 4.8 0.00 0.66 0.00 90 1013.2
20260508003018 7 17 4.8 4.8 0.00 0.66 0.00 90 1013.2
20260508002518 7 8 4.8 4.8 0.00 0.66 0.00 90 1013.2
20260508002018 7 15 3.2 4.8 0.00 0.66 0.00 90 1013.3
20260508001518 7 15 3.2 4.8 0.00 0.66 0.00 90 1013.3
20260508001018 7 13 3.2 4.8 0.00 0.66 0.00 90 1013.3
20260508000518 7 27 3.2 4.8 0.00 0.66 0.00 90 1013.3
20260508000018 7 27 3.2 4.8 0.00 0.66 0.00 90 1013.3
20260507235521 7 27 1.6 4.8 0.00 0.66 0.00 90 1013.2
20260507235018 7 26 3.2 8.0 0.00 0.66 0.00 90 1013.2
20260507234518 7 25 3.2 4.8 0.00 0.66 0.00 90 1013.3
20260507234018 7 25 4.8 4.8 0.00 0.66 0.00 89 1013.4
20260507233519 7 25 3.2 4.8 0.00 0.66 0.00 89 1013.4
20260507232507 7 25 3.2 4.8 0.00 0.66 0.00 89 1013.5
20260507232007 7 13 4.8 8.0 0.00 0.66 0.00 89 1013.4
20260507231518 7 29 6.4 8.0 0.00 0.66 0.00 88 1013.4
20260507231018 8 29 4.8 4.8 0.00 0.66 0.00 87 1013.4
20260507230018 8 29 0.0 0.0 0.00 0.66 0.00 88 1013.4
20260507225518 8 29 0.0 0.0 0.00 0.66 0.00 88 1013.4
20260507225018 8 29 0.0 0.0 0.00 0.66 0.00 89 1013.5
20260507224518 8 29 0.0 0.0 0.00 0.66 0.00 88 1013.5
20260507224018 8 29 0.0 0.0 0.00 0.66 0.00 88 1013.6
20260507223007 8 29 0.0 0.0 0.00 0.66 0.00 88 1013.6
20260507222518 8 29 0.0 0.0 0.00 0.66 0.00 88 1013.6
20260507222018 8 29 0.0 0.0 0.00 0.66 0.00 88 1013.7
20260507221518 8 29 0.0 0.0 0.00 0.66 0.00 88 1013.5
20260507221018 8 29 0.0 0.0 0.00 0.66 0.00 88 1013.6
20260507220519 8 29 0.0 0.0 0.00 0.66 0.00 88 1013.6
20260507220019 8 29 0.0 0.0 0.00 0.66 0.00 88 1013.6
20260507215518 8 29 0.0 0.0 0.00 0.66 0.66 88 1013.6
20260507215018 8 29 0.0 0.0 0.00 0.66 0.66 89 1013.6
20260507214507 8 29 0.0 0.0 0.00 0.66 0.66 88 1013.6
20260507214018 8 29 0.0 0.0 0.00 0.66 0.66 88 1013.4
20260507213518 8 29 0.0 0.0 0.00 0.66 0.66 88 1013.4
20260507212518 9 0 0.0 0.0 0.00 0.66 0.66 88 1013.4
20260507212018 9 0 0.0 0.0 0.00 0.66 0.66 88 1013.3
20260507211519 8 0 0.0 0.0 0.00 0.66 0.66 87 1013.3
20260507210519 9 0 0.0 0.0 0.00 0.66 0.66 85 1013.3
20260507210018 9 0 0.0 0.0 0.00 0.66 0.66 85 1013.2
20260507205517 9 0 0.0 0.0 0.00 0.66 0.66 85 1012.9
20260507205007 9 0 0.0 0.0 0.00 0.66 0.66 85 1012.8
20260507204518 9 0 0.0 0.0 0.00 0.66 0.66 85 1012.7
20260507204007 9 349 0.0 0.0 0.00 0.66 0.66 83 1012.6
20260507203518 10 349 0.0 0.0 0.00 0.66 0.66 82 1012.5
20260507203018 10 349 0.0 0.0 0.00 0.66 0.66 81 1012.5
20260507202518 11 105 0.0 0.0 0.00 0.66 0.66 83 1012.3
20260507201518 11 175 3.2 8.0 0.00 0.66 0.66 84 1012.2
20260507201018 10 69 3.2 4.8 0.00 0.66 0.66 84 1012.2
20260507200519 10 5 0.0 0.0 0.00 0.66 0.66 83 1012.3
20260507195507 11 5 0.0 0.0 0.00 0.66 0.66 81 1012.1
20260507195018 11 5 0.0 0.0 0.00 0.66 0.66 80 1012.0
20260507194018 11 5 0.0 0.0 0.00 0.66 0.66 82 1011.9
20260507193018 11 350 0.0 0.0 0.00 0.66 0.66 80 1011.6
20260507192506 11 350 0.0 4.8 0.00 0.66 0.66 81 1011.6
20260507192018 11 353 4.8 8.0 0.00 0.66 0.66 82 1011.4
20260507191018 11 341 4.8 8.0 0.00 0.66 0.66 80 1011.2
20260507190518 11 340 6.4 8.0 0.00 0.66 0.66 80 1011.2
20260507190008 11 340 8.0 8.0 0.00 0.66 0.66 79 1011.0
20260507185518 12 341 4.8 8.0 0.00 0.66 0.66 78 1011.1
20260507184519 12 357 4.8 8.0 0.00 0.66 0.66 77 1010.8
20260507183018 13 3 4.8 4.8 0.00 0.66 0.66 73 1010.7
20260507182507 13 5 3.2 4.8 0.00 0.66 0.66 74 1010.7
20260507182018 13 5 3.2 8.0 0.00 0.66 0.66 72 1010.6
20260507181518 13 355 4.8 8.0 0.00 0.66 0.66 72 1010.5
20260507181017 13 331 3.2 4.8 0.00 0.66 0.66 72 1010.5
20260507180517 13 317 4.8 4.8 0.00 0.66 0.66 69 1010.6
20260507180018 13 317 4.8 8.0 0.00 0.66 0.66 69 1010.7
20260507175518 13 317 4.8 11.3 0.00 0.66 0.66 70 1010.7
20260507175018 13 304 3.2 12.9 0.00 0.66 0.66 70 1010.7
20260507174518 13 316 11.3 19.3 0.00 0.66 0.66 72 1010.7
20260507174018 13 314 11.3 19.3 0.00 0.66 0.66 71 1010.7
20260507173518 13 308 9.7 19.3 0.00 0.66 0.66 71 1010.6
20260507173018 13 301 14.5 19.3 0.00 0.66 0.66 72 1010.6
20260507172517 12 320 8.0 12.9 0.00 0.66 0.66 72 1010.4
20260507172017 12 286 11.3 19.3 0.00 0.66 0.66 76 1010.3
20260507171517 12 314 8.0 19.3 0.00 0.66 0.66 76 1010.3
20260507171018 11 135 1.6 14.5 0.00 0.66 0.66 75 1010.1
20260507165517 11 89 6.4 19.3 0.03 0.66 0.66 76 1010.3
20260507164517 11 98 8.0 14.5 0.05 0.66 0.66 75 1010.3
20260507164017 11 96 9.7 16.1 0.05 0.66 0.66 77 1010.5
20260507163517 11 128 8.0 20.9 0.13 0.66 0.66 78 1010.5
20260507163018 11 99 11.3 19.3 0.15 0.66 0.66 79 1010.5
20260507162517 11 96 9.7 16.1 0.15 0.66 0.66 80 1010.7
20260507162017 11 102 8.0 14.5 0.15 0.66 0.66 82 1010.7
20260507161518 11 104 8.0 16.1 0.18 0.66 0.66 82 1010.8
20260507161017 11 120 8.0 12.9 0.18 0.66 0.66 82 1010.8
20260507160518 11 93 8.0 12.9 0.18 0.66 0.66 84 1010.9
20260507160018 11 106 4.8 11.3 0.18 0.66 0.66 82 1011.2
20260507155517 10 136 3.2 4.8 0.15 0.64 0.64 83 1011.3
20260507155018 10 292 6.4 12.9 0.15 0.64 0.64 83 1011.4
20260507154518 10 307 9.7 14.5 0.15 0.61 0.61 83 1011.3
20260507153518 11 284 9.7 16.1 0.08 0.53 0.53 81 1011.4
20260507152506 11 311 8.0 14.5 0.10 0.51 0.51 78 1011.2
20260507152017 11 285 9.7 19.3 0.10 0.51 0.51 76 1011.2
20260507151517 11 281 4.8 19.3 0.08 0.48 0.48 76 1011.3
20260507151017 11 325 11.3 19.3 0.08 0.48 0.48 77 1011.4
20260507150518 11 1 11.3 19.3 0.08 0.48 0.48 83 1011.4
20260507145517 11 28 11.3 16.1 0.10 0.48 0.48 80 1011.3
20260507145017 11 349 9.7 14.5 0.10 0.48 0.48 80 1011.4
20260507144517 11 348 11.3 16.1 0.15 0.48 0.48 79 1011.3
20260507144017 11 351 8.0 12.9 0.30 0.48 0.48 78 1011.4
20260507143018 11 336 8.0 12.9 0.41 0.46 0.46 81 1011.4
20260507142517 11 350 4.8 8.0 0.41 0.43 0.43 79 1011.2
20260507141517 11 60 4.8 16.1 0.41 0.41 0.41 77 1011.1
20260507141017 11 90 9.7 19.3 0.41 0.41 0.41 77 1011.0
20260507140518 11 99 11.3 16.1 0.41 0.41 0.41 75 1011.2
20260507140018 11 122 11.3 19.3 0.41 0.41 0.41 73 1011.3
20260507135517 11 132 6.4 19.3 0.38 0.38 0.38 72 1011.2
20260507135017 11 122 3.2 14.5 0.38 0.38 0.38 73 1011.4
20260507134518 12 155 8.0 35.4 0.33 0.33 0.33 70 1011.4
20260507134017 12 188 22.5 41.8 0.18 0.18 0.18 71 1011.6
20260507133517 11 167 9.7 24.1 0.13 0.13 0.13 75 1011.5
20260507133018 11 163 11.3 29.0 0.05 0.05 0.05 79 1011.6
20260507132517 12 173 16.1 29.0 0.03 0.03 0.03 76 1011.4
20260507132017 12 166 17.7 32.2 0.03 0.03 0.03 73 1011.3
20260507131517 12 160 14.5 27.4 0.00 0.00 0.00 75 1011.2
20260507130517 12 174 16.1 27.4 0.00 0.00 0.00 75 1011.1
20260507130027 12 170 11.3 27.4 0.00 0.00 0.00 75 1011.0
20260507125517 12 158 14.5 25.7 0.00 0.00 0.00 75 1010.7
20260507124518 12 149 17.7 32.2 0.00 0.00 0.00 76 1010.4
20260507123517 13 159 16.1 32.2 0.00 0.00 0.00 75 1010.7
20260507123017 13 145 16.1 27.4 0.00 0.00 0.00 75 1010.7
20260507122517 13 150 8.0 20.9 0.00 0.00 0.00 75 1010.8
20260507122017 13 166 16.1 32.2 0.00 0.00 0.00 72 1010.6
20260507121517 14 153 14.5 32.2 0.00 0.00 0.00 67 1010.5